Location: State Camp
(41.2367°N, 77.7828°W)
Time: 00:36:41
(UTC-05:00)

Hubble Space Telescope - Visible Passes

Search period start: 12 February 2016 00:00
Search period end: 22 February 2016 00:00
Orbit: 540 x 543 km, 28.5° (Epoch: 10 February)

Date Brightness Start Highest point End Pass type
(mag) Time Alt. Az. Time Alt. Az. Time Alt. Az.
12 Feb 3.5 19:59:52 10° SSW 19:59:58 10° SSW 19:59:58 10° SSW visible
13 Feb 3.3 19:50:05 10° SSW 19:51:10 13° S 19:51:10 13° S visible
14 Feb 3.1 19:40:24 10° SSW 19:42:21 14° S 19:42:21 14° S visible
15 Feb 3.0 19:30:47 10° SSW 19:32:58 14° S 19:33:31 14° S visible
16 Feb 3.1 19:21:16 10° SW 19:23:23 14° S 19:24:42 12° SSE visible
17 Feb 3.2 19:11:48 10° SW 19:13:48 13° S 19:15:48 10° SSE visible
18 Feb 3.3 19:02:27 10° SSW 19:04:13 12° S 19:05:57 10° SSE visible
19 Feb 3.4 18:53:17 10° SSW 18:54:37 11° S 18:55:55 10° S visible
